Hourly Weather Ruta

Today, 23 April, Friday

Time Temperature Precipitation Wind Pressure Humidity
00:00 0°C° 0.1 mm 5 mps 754 mmHg 94%
01:00 0°C° 0.1 mm 5 mps 754 mmHg 93%
02:00 -1°C° 0.2 mm 6 mps 754 mmHg 94%
03:00 -1°C° 0.2 mm 6 mps 755 mmHg 94%
04:00 -1°C° 0.2 mm 6 mps 755 mmHg 95%
05:00 -1°C° 0.2 mm 6 mps 755 mmHg 92%
06:00 +1°C° 0.2 mm 5 mps 755 mmHg 89%
07:00 +1°C° 0.2 mm 5 mps 756 mmHg 86%
08:00 +2°C° 0.3 mm 6 mps 756 mmHg 79%
09:00 +3°C° 0.3 mm 7 mps 756 mmHg 72%
10:00 +4°C° 0.3 mm 7 mps 756 mmHg 64%
11:00 +4°C° 0.2 mm 8 mps 757 mmHg 61%
12:00 +4°C° 0.2 mm 8 mps 757 mmHg 57%
13:00 +4°C° 0.2 mm 8 mps 758 mmHg 53%
14:00 +4°C° 0.1 mm 8 mps 758 mmHg 53%
15:00 +4°C° 0.1 mm 7 mps 758 mmHg 53%
16:00 +4°C° 0.1 mm 7 mps 758 mmHg 53%
17:00 +2°C° 0 mm 6 mps 758 mmHg 57%
18:00 +1°C° 0 mm 5 mps 759 mmHg 62%
19:00 0°C° 0 mm 4 mps 759 mmHg 66%
20:00 -1°C° 0 mm 4 mps 759 mmHg 70%
21:00 0°C° 0 mm 3 mps 759 mmHg 73%
22:00 -1°C° 0 mm 3 mps 759 mmHg 77%
23:00 -1°C° 0 mm 3 mps 759 mmHg 77%

Tomorrow, 24 April, Saturday

Time Temperature Precipitation Wind Pressure Humidity
00:00 -1°C° 0 mm 3 mps 759 mmHg 78%
01:00 -1°C° 0 mm 3 mps 759 mmHg 78%
02:00 -2°C° 0 mm 2 mps 759 mmHg 78%
03:00 -2°C° 0 mm 2 mps 759 mmHg 78%
04:00 -2°C° 0 mm 2 mps 759 mmHg 78%
05:00 0°C° 0 mm 3 mps 759 mmHg 72%
06:00 +2°C° 0 mm 3 mps 759 mmHg 65%
07:00 +4°C° 0 mm 4 mps 759 mmHg 59%
08:00 +5°C° 0 mm 5 mps 759 mmHg 52%
09:00 +5°C° 0 mm 6 mps 759 mmHg 46%
10:00 +6°C° 0 mm 7 mps 759 mmHg 39%
11:00 +5°C° 0 mm 7 mps 759 mmHg 42%
12:00 +5°C° 0 mm 7 mps 759 mmHg 45%
13:00 +5°C° 0 mm 8 mps 759 mmHg 48%
14:00 +5°C° 0 mm 7 mps 759 mmHg 48%
15:00 +4°C° 0 mm 7 mps 759 mmHg 48%
16:00 +4°C° 0 mm 6 mps 759 mmHg 47%
17:00 +2°C° 0 mm 5 mps 759 mmHg 54%
18:00 +1°C° 0 mm 4 mps 759 mmHg 60%
19:00 -1°C° 0 mm 4 mps 760 mmHg 67%
20:00 -1°C° 0 mm 3 mps 760 mmHg 71%
21:00 -2°C° 0 mm 3 mps 760 mmHg 75%
22:00 -2°C° 0 mm 3 mps 760 mmHg 80%
23:00 -2°C° 0 mm 3 mps 760 mmHg 80%

Day after tomorrow, 25 April, Sunday

Time Temperature Precipitation Wind Pressure Humidity
00:00 -2°C° 0 mm 2 mps 760 mmHg 81%
01:00 -2°C° 0 mm 2 mps 760 mmHg 81%
02:00 -2°C° 0 mm 2 mps 759 mmHg 80%
03:00 -2°C° 0 mm 3 mps 759 mmHg 79%
04:00 -2°C° 0 mm 3 mps 759 mmHg 78%
05:00 -1°C° 0 mm 3 mps 759 mmHg 71%
06:00 +1°C° 0 mm 3 mps 759 mmHg 65%
07:00 +3°C° 0 mm 3 mps 759 mmHg 58%
08:00 +4°C° 0.2 mm 4 mps 759 mmHg 56%
09:00 +3°C° 0.2 mm 5 mps 759 mmHg 53%
10:00 +5°C° 0.2 mm 5 mps 759 mmHg 51%
11:00 +5°C° 0.3 mm 5 mps 759 mmHg 50%
12:00 +5°C° 0.3 mm 6 mps 759 mmHg 49%
13:00 +5°C° 0.3 mm 6 mps 758 mmHg 49%
14:00 +4°C° 0.1 mm 6 mps 758 mmHg 50%
15:00 +4°C° 0.1 mm 7 mps 759 mmHg 52%
16:00 +3°C° 0.1 mm 7 mps 759 mmHg 53%
17:00 +2°C° 0 mm 6 mps 759 mmHg 61%
18:00 0°C° 0 mm 5 mps 759 mmHg 68%
19:00 -1°C° 0 mm 4 mps 759 mmHg 75%
20:00 -1°C° 0 mm 3 mps 759 mmHg 78%
21:00 -2°C° 0 mm 3 mps 759 mmHg 81%
22:00 -4°C° 0 mm 3 mps 759 mmHg 84%
23:00 -4°C° 0 mm 3 mps 759 mmHg 83%

26 April, Monday

Time Temperature Precipitation Wind Pressure Humidity
00:00 -4°C° 0 mm 3 mps 758 mmHg 82%
01:00 -4°C° 0 mm 3 mps 758 mmHg 80%
02:00 -4°C° 0 mm 3 mps 758 mmHg 79%
03:00 -4°C° 0 mm 3 mps 758 mmHg 78%
04:00 -4°C° 0 mm 3 mps 758 mmHg 78%
05:00 -1°C° 0 mm 3 mps 758 mmHg 72%
06:00 +1°C° 0 mm 3 mps 757 mmHg 66%
07:00 +3°C° 0 mm 4 mps 757 mmHg 61%
08:00 +3°C° 0.2 mm 4 mps 757 mmHg 58%
09:00 +3°C° 0.2 mm 5 mps 757 mmHg 55%
10:00 +5°C° 0.2 mm 5 mps 756 mmHg 51%
11:00 +6°C° 0.3 mm 5 mps 756 mmHg 50%
12:00 +6°C° 0.3 mm 5 mps 756 mmHg 48%
13:00 +5°C° 0.3 mm 6 mps 756 mmHg 46%
14:00 +6°C° 0.1 mm 5 mps 756 mmHg 46%
15:00 +6°C° 0.1 mm 5 mps 755 mmHg 46%
16:00 +6°C° 0.1 mm 5 mps 755 mmHg 46%
17:00 +4°C° 0 mm 4 mps 755 mmHg 55%
18:00 +3°C° 0 mm 3 mps 755 mmHg 63%
19:00 +1°C° 0 mm 3 mps 755 mmHg 72%
20:00 +1°C° 0 mm 2 mps 756 mmHg 77%
21:00 -1°C° 0 mm 2 mps 756 mmHg 83%
22:00 -2°C° 0 mm 2 mps 756 mmHg 89%
23:00 -2°C° 0 mm 2 mps 756 mmHg 89%

27 April, Tuesday

Time Temperature Precipitation Wind Pressure Humidity
00:00 -2°C° 0 mm 2 mps 756 mmHg 89%
01:00 -2°C° 0 mm 2 mps 756 mmHg 89%
02:00 -2°C° 0 mm 2 mps 755 mmHg 89%
03:00 -2°C° 0 mm 2 mps 755 mmHg 88%
04:00 -3°C° 0 mm 2 mps 755 mmHg 88%
05:00 -1°C° 0 mm 2 mps 755 mmHg 79%
06:00 +2°C° 0 mm 2 mps 755 mmHg 70%
07:00 +3°C° 0 mm 3 mps 755 mmHg 62%
08:00 +5°C° 0 mm 2 mps 755 mmHg 58%
09:00 +7°C° 0 mm 2 mps 755 mmHg 55%
10:00 +8°C° 0 mm 2 mps 755 mmHg 51%
11:00 +9°C° 0 mm 2 mps 754 mmHg 50%
12:00 +9°C° 0 mm 2 mps 754 mmHg 49%
13:00 +10°C° 0 mm 2 mps 754 mmHg 47%
14:00 +11°C° 0 mm 1 mps 753 mmHg 49%
15:00 +11°C° 0 mm 1 mps 753 mmHg 51%
16:00 +11°C° 0 mm 1 mps 753 mmHg 52%
17:00 +8°C° 0 mm 2 mps 753 mmHg 59%
18:00 +6°C° 0 mm 2 mps 753 mmHg 66%
19:00 +5°C° 0 mm 2 mps 753 mmHg 74%
20:00 +5°C° 0 mm 2 mps 753 mmHg 75%
21:00 +4°C° 0 mm 2 mps 752 mmHg 76%
22:00 +4°C° 0 mm 2 mps 752 mmHg 77%
23:00 +4°C° 0 mm 2 mps 752 mmHg 77%

28 April, Wednesday

Time Temperature Precipitation Wind Pressure Humidity
00:00 +4°C° 0 mm 2 mps 752 mmHg 77%
01:00 +3°C° 0 mm 2 mps 751 mmHg 77%
02:00 +3°C° 0 mm 2 mps 751 mmHg 77%
03:00 +3°C° 0 mm 2 mps 751 mmHg 77%
04:00 +3°C° 0 mm 2 mps 750 mmHg 77%
05:00 +3°C° 0 mm 3 mps 750 mmHg 74%
06:00 +4°C° 0 mm 3 mps 750 mmHg 72%
07:00 +5°C° 0 mm 3 mps 750 mmHg 69%
08:00 +6°C° 0.1 mm 4 mps 750 mmHg 71%
09:00 +7°C° 0.1 mm 4 mps 749 mmHg 72%
10:00 +7°C° 0.1 mm 4 mps 749 mmHg 73%
11:00 +7°C° 0.3 mm 4 mps 749 mmHg 76%
12:00 +7°C° 0.3 mm 4 mps 749 mmHg 78%
13:00 +7°C° 0.3 mm 4 mps 749 mmHg 81%
14:00 +7°C° 0.1 mm 4 mps 749 mmHg 82%
15:00 +8°C° 0.1 mm 3 mps 748 mmHg 84%
16:00 +8°C° 0.1 mm 3 mps 748 mmHg 85%
17:00 +7°C° 0.1 mm 3 mps 748 mmHg 87%
18:00 +7°C° 0.1 mm 2 mps 748 mmHg 89%
19:00 +6°C° 0.1 mm 2 mps 748 mmHg 91%
20:00 +6°C° 0 mm 2 mps 748 mmHg 93%
21:00 +5°C° 0 mm 2 mps 748 mmHg 94%
22:00 +5°C° 0 mm 2 mps 748 mmHg 96%
23:00 +4°C° 0 mm 2 mps 747 mmHg 96%
Show more